GEFSNE_con_cape1000_192.txt.gz
Probability
74 74 68 61 65 61 61 61 48 29 26 48 42 45 29 29 16 13 23 19 0 0 0 0 0 0 0 0 0 0 0 0 0 0 3 6 10 10
81 68 68 61 55 58 61 58 55 39 35 42 35 26 29 16 10 16 19 10 6 0 0 0 0 0 0 0 0 0 0 0 0 0 0 0 3 3
74 68 65 65 58 52 52 48 52 39 29 39 32 35 32 29 16 16 19 13 13 3 0 0 0 0 0 0 0 0 0 0 0 0 0 0 0 0
74 58 58 45 45 48 52 45 42 42 29 32 32 26 35 26 23 19 16 10 13 0 0 0 0 0 0 0 0 0 0 0 0 0 0 0 0 0
55 55 48 48 52 48 45 42 35 26 32 35 29 29 32 19 16 19 13 13 10 0 0 0 0 0 0 0 0 0 0 0 0 0 0 0 0 0
58 52 48 45 35 39 35 39 35 32 29 35 32 26 19 19 23 16 16 16 13 0 0 0 0 0 0 0 0 0 0 0 0 0 0 0 0 0
55 48 39 29 26 19 16 19 26 26 26 26 23 19 16 16 16 13 3 3 3 6 3 0 3 3 0 0 0 0 0 0 0 0 0 0 0 0
48 42 29 26 16 10 6 6 10 16 19 23 19 16 16 13 13 13 6 3 3 10 6 3 3 0 0 3 0 0 0 0 0 0 0 0 0 0
42 42 29 13 10 13 6 0 0 0 0 10 13 16 19 19 16 13 13 10 10 10 6 0 3 0 0 0 0 0 0 0 0 0 0 0 0 0
35 32 26 19 16 16 13 10 10 10 10 0 3 6 10 6 6 10 10 10 10 6 6 0 3 3 0 3 0 0 0 0 0 0 0 0 0 0
26 26 26 16 10 3 10 13 13 10 0 0 0 0 0 0 0 0 0 3 0 3 3 3 0 0 0 3 0 0 0 0 0 0 0 0 0 0
23 19 16 10 10 0 3 13 16 16 6 3 0 0 0 0 0 0 0 0 0 3 3 3 0 0 0 0 0 0 0 0 0 0 0 0 0 0
19 19 13 3 0 0 0 6 6 6 6 6 3 3 3 0 0 0 0 0 3 3 3 3 3 0 0 0 0 0 0 0 0 0 0 0 0 0
23 13 6 3 0 0 0 0 0 0 3 6 3 3 3 3 3 0 0 0 3 0 3 3 0 0 0 0 0 0 0 0 0 0 0 0 0 0
13 13 0 0 0 0 0 0 0 0 3 3 3 6 6 6 0 0 0 0 0 0 0 3 3 0 0 0 0 0 0 0 0 0 0 0 0 0
3 0 0 0 0 0 0 0 0 3 3 3 6 6 6 6 0 0 0 0 0 0 0 0 0 0 0 0 0 0 0 0 0 0 0 0 0 0
0 3 3 3 0 3 6 0 0 0 0 3 6 6 6 3 3 0 0 0 0 0 0 0 0 0 0 0 0 0 0 0 0 0 0 0 0 0
0 0 3 3 3 3 6 6 6 6 6 6 6 6 6 3 3 3 0 0 0 0 0 0 0 0 0 0 0 0 0 0 0 0 0 0 0 0
0 3 6 3 3 3 3 6 6 6 6 6 6 6 3 0 0 0 0 0 0 0 0 0 0 0 0 0 0 0 0 0 0 0 0 0 0 0
0 3 6 6 3 3 3 0 6 6 6 3 6 0 0 0 0 0 0 0 0 0 0 0 0 0 0 0 0 0 0 0 0 0 0 0 0 0
0 3 6 13 6 3 6 3 3 3 3 3 0 0 0 0 0 0 0 0 0 0 0 0 0 0 0 0 0 0 0 0 0 0 0 0 0 0
3 6 6 6 3 0 0 6 6 3 3 0 0 0 0 0 0 0 0 0 0 0 0 0 0 0 0 0 0 0 0 0 0 0 0 0 0 0
0 3 3 3 3 3 3 3 3 3 3 0 0 0 0 0 0 0 0 0 0 0 0 0 0 0 0 0 0 0 0 0 0 0 0 0 0 0

GEFSNE_con_cape1000_198.txt.gz
Probability
32 29 16 19 16 13 13 13 13 10 3 0 0 0 0 0 0 0 0 0 0 0 0 0 0 0 0 0 0 0 0 0 0 0 0 0 0 3
29 19 16 13 13 13 13 13 10 10 6 0 0 0 0 3 0 0 0 0 0 0 0 0 0 0 0 0 0 0 0 0 0 0 0 0 0 0
23 19 13 10 6 6 10 6 3 3 3 3 0 0 0 0 0 0 3 3 0 0 0 0 0 0 0 0 0 0 0 0 0 0 0 0 0 0
16 10 10 6 6 6 6 3 3 0 3 3 3 0 0 0 0 3 3 6 0 0 0 0 0 0 0 0 0 0 0 0 0 0 0 0 0 0
13 6 6 6 10 10 3 3 3 3 0 0 0 0 0 0 3 0 0 0 0 0 0 0 0 0 0 0 0 0 0 0 0 0 0 0 0 0
13 6 6 6 16 10 10 10 10 6 3 0 0 0 0 0 0 0 0 0 0 0 0 0 0 0 0 0 0 0 0 0 0 0 0 0 0 0
23 13 10 10 10 10 10 10 10 6 6 3 3 0 0 0 0 0 0 0 0 0 0 0 0 0 0 0 0 0 0 0 0 0 0 0 0 0
23 19 16 10 10 10 10 10 10 6 6 6 3 3 0 0 0 0 0 0 0 0 0 0 0 0 0 0 0 0 0 0 0 0 0 0 0 0
19 16 13 16 10 6 6 3 0 0 6 3 3 3 0 0 0 0 3 0 0 0 0 0 0 0 0 0 0 0 0 0 0 0 0 0 0 0
16 16 16 13 10 6 6 6 6 3 0 0 0 0 0 0 0 0 0 0 0 0 0 0 0 0 0 0 0 0 0 0 0 0 0 0 0 0
10 13 13 13 6 3 6 6 3 0 0 0 0 0 0 0 0 0 0 0 0 0 0 0 0 0 0 0 0 0 0 0 0 0 0 0 0 0
6 6 6 6 0 0 0 3 3 0 0 0 0 0 0 0 0 0 0 0 0 0 0 0 0 0 0 0 0 0 0 0 0 0 0 0 0 0
10 6 6 0 0 0 0 0 0 0 0 0 0 0 0 0 0 0 0 0 0 0 0 0 0 0 0 0 0 0 0 0 0 0 0 0 0 0
3 3 3 0 0 0 0 0 0 0 0 0 0 0 0 0 0 0 0 0 0 0 0 0 0 0 0 0 0 0 0 0 0 0 0 0 0 0
3 0 0 0 0 0 0 0 0 0 0 0 0 0 0 0 0 0 0 0 0 0 0 0 0 0 0 0 0 0 0 0 0 0 0 0 0 0
0 0 0 0 0 0 0 0 0 0 0 0 0 0 0 0 0 0 0 0 0 0 0 0 0 0 0 0 0 0 0 0 0 0 0 0 0 0
0 0 0 0 0 0 0 0 0 0 0 0 0 0 0 0 0 0 0 0 0 0 0 0 0 0 0 0 0 0 0 0 0 0 0 0 0 0
0 0 0 0 0 0 0 0 0 0 0 0 0 0 0 0 0 0 0 0 0 0 0 0 0 0 0 0 0 0 0 0 0 0 0 0 0 0
0 0 0 0 0 0 0 0 0 0 0 0 0 0 0 0 0 0 0 0 0 0 0 0 0 0 0 0 0 0 0 0 0 0 0 0 0 0
0 0 0 0 0 0 0 0 0 0 0 0 0 0 0 0 0 0 0 0 0 0 0 0 0 0 0 0 0 0 0 0 0 0 0 0 0 0
0 0 0 0 0 0 0 0 0 0 0 0 0 0 0 0 0 0 0 0 0 0 0 0 0 0 0 0 0 0 0 0 0 0 0 0 0 0
0 0 0 0 0 0 0 0 0 0 0 0 0 0 0 0 0 0 0 0 0 0 0 0 0 0 0 0 0 0 0 0 0 0 0 0 0 0
0 0 0 0 0 0 0 0 0 0 0 0 0 0 0 0 0 0 0 0 0 0 0 0 0 0 0 0 0 0 0 0 0 0 0 0 0 0

GEFSNE_con_cape1000_204.txt.gz
Probability
23 23 13 10 10 10 10 10 13 10 13 6 3 3 3 3 0 0 6 3 0 0 0 0 0 0 0 0 0 0 0 3 3 3 3 3 6 6
29 26 16 16 10 10 10 6 6 10 10 6 0 0 0 0 0 6 6 0 0 0 0 0 0 0 0 0 0 0 0 0 0 0 0 0 3 0
32 23 16 10 10 6 6 6 6 6 6 3 0 0 0 3 3 6 3 3 3 0 0 0 0 0 0 0 0 0 0 0 0 0 0 0 0 0
35 19 13 10 10 10 6 6 10 10 6 6 3 0 3 3 0 6 0 0 0 0 0 0 0 0 0 0 0 0 0 0 0 0 0 0 0 0
32 23 13 6 6 6 6 6 10 3 3 6 3 0 0 0 0 0 0 0 0 0 0 0 0 0 0 0 0 0 0 0 0 0 0 0 0 0
23 23 16 10 6 6 6 6 10 6 3 3 3 3 3 0 0 0 3 0 0 0 0 0 0 0 0 0 0 0 0 0 0 0 0 0 0 0
19 19 16 10 10 6 6 10 10 6 10 6 10 6 3 0 0 0 3 0 0 0 0 0 0 0 0 0 0 0 0 0 0 0 0 0 0 0
16 13 16 13 10 6 6 3 3 10 10 10 10 6 6 3 0 0 0 0 0 0 0 0 0 0 0 0 0 0 0 0 0 0 0 0 0 0
16 16 13 13 10 16 3 3 0 0 0 10 10 10 6 6 3 3 3 0 0 0 0 0 0 0 0 0 0 0 0 0 0 0 0 0 0 0
13 13 16 16 13 13 10 6 10 3 0 0 6 10 6 6 3 3 3 0 0 0 0 0 0 0 0 0 0 0 0 0 0 0 0 0 0 0
10 16 13 13 10 0 3 3 10 6 0 0 0 0 0 0 0 0 0 0 0 0 0 0 0 0 0 0 0 0 0 0 0 0 0 0 0 0
10 10 6 3 3 0 0 3 3 10 0 0 0 0 0 0 0 0 0 0 0 0 0 0 0 0 0 0 0 0 0 0 0 0 0 0 0 0
16 10 6 0 0 0 0 3 3 0 3 0 0 0 0 0 0 0 0 0 0 0 0 0 0 0 0 0 0 0 0 0 0 0 0 0 0 0
16 16 10 0 0 0 0 0 0 0 0 0 0 0 0 0 0 0 0 0 0 0 0 0 0 0 0 0 0 0 0 0 0 0 0 0 0 0
16 13 0 0 0 0 0 0 0 0 0 0 0 0 0 0 3 3 0 0 0 0 0 0 0 0 0 0 0 0 0 0 0 0 0 0 0 0
3 0 0 0 0 0 0 0 0 0 0 0 0 0 0 0 0 0 0 0 0 0 0 0 0 0 0 0 0 0 0 0 0 0 0 0 0 0
0 0 0 0 0 0 0 0 0 0 0 0 0 0 0 0 0 0 0 0 0 0 0 0 0 0 0 0 0 0 0 0 0 0 0 0 0 0
0 0 0 0 3 0 0 0 0 0 0 0 0 0 0 0 0 0 0 0 0 0 0 0 0 0 0 0 0 0 0 0 0 0 0 0 0 0
0 0 0 0 3 3 3 0 0 0 0 0 0 0 0 0 0 0 0 0 0 0 0 0 0 0 0 0 0 0 0 0 0 0 0 0 0 0
0 0 0 3 3 3 6 3 0 0 0 0 0 0 0 0 0 0 0 0 0 0 0 0 0 0 0 0 0 0 0 0 0 0 0 0 0 0
0 0 0 0 3 3 6 10 3 0 0 3 3 0 0 0 0 0 0 0 0 0 0 0 0 0 0 0 0 0 0 0 0 0 0 0 0 0
3 3 3 3 0 0 0 6 6 6 6 0 0 3 0 0 0 0 0 0 0 0 0 0 0 0 0 0 0 0 0 0 0 0 0 0 0 0
3 3 3 3 0 0 0 3 3 3 6 6 6 3 0 0 0 0 0 0 0 0 0 0 0 0 0 0 0 0 0 0 0 0 0 0 0 0

GEFSNE_con_cape1000_210.txt.gz
Probability
68 77 74 71 61 61 52 55 55 42 39 29 35 29 35 42 19 32 32 10 0 0 0 0 0 0 0 0 0 0 0 0 0 3 3 6 6 6
71 68 74 55 55 68 55 55 55 39 42 13 29 19 32 16 13 29 32 6 0 0 0 0 0 0 0 0 0 0 0 0 0 0 0 3 3 6
65 61 61 58 61 61 58 55 52 52 42 32 23 32 39 32 26 26 26 23 19 0 0 0 0 0 0 0 0 0 0 0 0 0 0 0 0 0
65 68 61 58 61 58 65 48 52 61 45 39 39 35 48 42 39 35 16 16 19 0 0 0 0 0 0 0 0 0 0 0 0 0 0 0 0 0
71 65 58 61 61 58 58 48 45 35 45 42 35 35 35 32 35 26 19 23 13 0 0 0 0 0 0 0 0 0 0 0 0 0 0 0 0 0
65 65 61 61 58 52 55 58 52 45 42 39 39 39 35 35 32 23 23 19 16 6 3 0 0 0 0 0 0 0 0 0 0 0 0 0 0 0
65 65 61 48 45 45 42 52 48 35 32 39 42 42 35 32 26 23 13 23 23 13 10 3 3 3 3 0 0 0 0 0 0 0 0 0 0 0
65 61 52 48 32 19 13 10 23 35 35 39 39 39 35 32 26 19 19 16 16 10 10 6 3 6 10 6 0 0 0 0 0 0 0 0 0 0
58 58 55 45 35 42 16 10 6 3 3 39 29 29 32 26 29 23 32 23 19 10 16 10 10 10 10 0 0 0 0 0 0 0 0 0 0 0
55 58 55 52 35 39 39 29 32 29 16 16 29 32 29 29 29 29 29 26 23 16 16 13 16 13 0 3 0 0 0 0 0 0 0 0 0 0
52 45 48 42 32 10 39 42 35 32 6 0 3 13 6 10 10 16 19 16 16 10 16 13 10 13 6 6 0 0 0 0 0 0 0 0 0 0
52 48 29 32 23 3 35 39 32 29 16 10 3 0 6 6 0 10 13 16 13 10 13 10 6 6 10 6 6 0 0 0 0 0 0 0 0 0
42 45 39 13 0 0 6 35 26 23 23 16 16 16 19 19 13 10 19 13 13 10 10 10 6 6 10 10 3 3 0 0 0 0 0 0 0 0
39 39 42 0 0 0 0 6 3 3 13 16 16 19 16 19 16 13 19 16 16 13 16 10 10 13 6 6 3 3 3 3 3 0 0 0 0 0
32 19 13 0 0 0 0 0 0 6 10 10 10 16 13 16 16 19 10 13 13 10 13 13 13 10 10 10 10 3 0 0 0 0 0 0 0 0
6 6 0 0 0 3 0 0 0 6 6 10 13 16 16 19 13 13 6 3 3 6 10 10 13 16 10 6 6 6 0 0 0 0 0 0 0 0
10 10 13 6 3 10 13 16 3 6 6 6 16 16 13 13 16 10 13 6 0 0 0 10 6 10 13 10 10 10 6 0 3 0 0 0 0 0
0 13 13 19 19 16 6 10 16 6 6 6 6 13 16 13 10 10 10 6 0 0 6 10 13 6 3 6 0 6 6 0 3 3 0 0 0 0
3 13 13 13 13 13 10 10 10 13 13 10 10 13 13 10 16 13 13 10 6 0 6 10 3 0 0 0 0 0 6 3 3 3 0 0 0 0
6 13 10 10 13 13 13 10 6 6 13 13 10 6 6 13 16 13 13 13 10 13 6 6 3 3 0 3 6 3 0 3 6 6 6 0 0 0
6 10 10 10 10 10 10 6 3 3 3 13 13 10 10 10 6 6 13 6 3 13 10 6 6 0 3 10 3 3 3 0 0 6 6 0 0 0
6 6 6 10 6 3 3 6 6 3 3 3 13 16 13 10 10 10 10 13 10 10 13 6 6 6 6 0 0 3 0 0 0 0 0 0 0 0
6 6 6 6 3 6 3 6 6 3 6 3 6 13 16 13 13 10 6 6 10 6 6 3 3 6 3 0 0 3 3 3 6 3 0 0 0 0

GEFSNE_con_cape1000_216.txt.gz
Probability
71 65 68 74 71 71 65 65 65 45 52 58 48 55 48 32 10 19 23 6 0 0 0 0 0 0 0 0 0 0 0 0 0 0 0 0 3 6
68 68 68 61 68 71 68 71 68 55 52 48 55 42 42 26 16 26 23 10 0 0 0 0 0 0 0 0 0 0 0 0 0 0 0 0 0 0
68 65 68 65 68 68 65 65 68 61 42 45 48 42 39 29 26 26 16 13 6 0 0 0 0 0 0 0 0 0 0 0 0 0 0 0 0 0
71 71 65 58 65 61 61 58 65 58 45 35 39 39 42 35 32 32 23 16 16 6 0 0 0 0 0 0 0 0 0 0 0 0 0 0 0 0
65 68 65 58 65 61 61 58 58 42 45 39 29 32 32 32 29 29 26 26 13 10 0 0 0 0 0 0 0 0 0 0 0 0 0 0 0 0
58 68 68 65 65 58 55 55 52 48 55 39 29 29 35 32 29 26 23 26 13 10 6 0 0 0 0 0 0 0 0 0 0 0 0 0 0 0
61 65 65 58 58 52 45 52 48 45 52 39 32 29 29 32 26 26 16 23 19 16 13 6 3 0 0 0 0 0 0 0 0 0 0 0 0 0
65 65 55 52 48 35 29 26 32 42 39 42 39 23 23 32 29 19 19 16 16 19 13 10 3 6 6 6 0 0 0 0 0 0 0 0 0 0
58 52 48 39 35 42 26 13 10 13 16 42 35 32 29 29 29 26 19 19 16 19 13 10 6 6 6 6 3 0 0 0 0 0 0 0 0 0
58 58 52 48 39 42 35 29 29 26 13 10 26 35 29 29 23 16 16 16 23 16 16 13 10 10 3 6 3 0 0 0 0 0 0 0 0 0
65 61 58 48 39 23 26 29 35 26 10 3 3 10 3 10 13 16 10 10 10 10 16 13 10 6 6 6 3 0 0 0 0 0 0 0 0 0
58 55 32 32 26 13 29 32 32 39 32 19 3 0 3 3 3 6 13 13 10 10 10 10 6 6 6 6 3 3 0 0 0 0 0 0 0 0
45 39 35 13 10 0 6 32 32 26 26 23 19 10 10 10 10 6 10 10 10 10 13 10 10 6 6 3 6 3 3 0 0 0 0 0 0 0
35 32 26 13 0 0 0 10 10 6 23 26 19 13 10 13 10 10 10 10 10 13 16 10 10 6 6 3 0 3 3 3 0 0 0 0 0 0
19 16 13 3 0 0 0 0 3 3 10 16 16 19 16 16 16 16 10 13 10 6 13 10 6 6 3 3 0 0 3 3 3 0 0 0 0 0
6 6 3 0 0 0 0 0 3 3 10 10 13 19 16 13 13 16 13 13 13 10 6 13 13 6 3 3 3 3 3 3 3 0 0 0 0 0
6 13 10 13 0 3 6 13 6 3 3 6 10 19 19 13 10 13 10 10 6 6 3 6 10 3 0 0 0 0 3 3 3 0 0 0 0 0
3 6 10 6 10 10 10 13 10 10 10 10 16 19 19 13 10 19 13 13 6 3 3 3 6 0 0 0 0 0 0 3 3 0 0 0 0 0
6 10 10 13 10 10 10 10 13 13 10 13 13 13 19 10 13 13 13 3 3 3 3 3 3 0 0 0 0 0 0 6 3 0 0 0 0 0
6 10 13 13 13 13 13 10 10 13 13 13 16 13 13 10 13 10 6 6 6 3 3 3 3 6 3 3 3 3 0 0 3 3 0 0 0 0
3 6 10 10 10 13 13 10 10 13 13 13 13 10 10 10 6 3 6 6 0 3 3 0 6 3 3 3 3 3 3 0 0 0 0 0 0 0
3 10 10 10 10 6 6 6 6 10 13 10 10 10 6 6 6 6 3 3 3 3 10 10 10 6 3 3 3 3 3 3 0 0 0 0 0 0
13 10 6 10 6 6 6 6 6 6 3 6 10 10 6 6 6 3 3 3 3 3 6 10 10 6 3 3 0 0 0 0 0 0 0 0 0 0

GEFSNE_con_cape1000_222.txt.gz
Probability
35 35 32 23 19 13 10 10 13 10 3 6 3 3 3 0 3 3 0 10 3 0 0 0 0 0 0 0 0 0 0 0 0 0 0 0 0 3
39 39 32 29 26 26 13 13 13 13 13 3 0 0 3 3 0 0 0 0 3 0 0 0 0 0 0 0 0 0 0 0 0 0 0 0 0 0
32 32 26 29 26 26 23 16 13 10 13 6 3 6 6 6 3 0 0 0 0 0 0 0 0 0 0 0 0 0 0 0 0 0 0 0 0 0
29 32 32 32 29 26 19 19 13 10 13 13 6 3 6 6 6 3 3 3 3 6 0 0 0 0 0 0 0 0 0 0 0 0 0 0 0 0
29 35 32 32 29 19 19 16 16 16 13 13 10 3 6 6 3 3 3 3 3 10 3 0 0 0 0 0 0 0 0 0 0 0 0 0 0 0
29 29 23 23 26 29 19 19 19 13 13 10 10 3 3 3 3 0 0 0 0 6 3 3 0 0 0 0 0 0 0 0 0 0 0 0 0 0
23 23 26 19 23 19 29 16 13 16 13 10 6 3 3 3 3 3 3 0 0 0 0 3 0 0 0 0 0 0 0 0 0 0 0 0 0 0
29 26 29 29 29 19 13 13 13 10 6 3 3 3 3 3 3 3 3 0 0 0 0 0 0 0 0 0 0 0 0 0 0 0 0 0 0 0
32 23 26 32 23 19 10 10 6 6 3 6 0 0 0 3 3 3 3 3 0 0 0 0 0 0 0 0 0 0 0 0 0 0 0 0 0 0
19 19 23 23 19 13 10 6 6 6 3 0 3 0 0 0 3 3 3 3 0 0 0 0 0 0 0 0 0 0 0 0 0 0 0 0 0 0
19 23 23 13 13 3 6 10 10 6 3 0 3 0 0 0 0 0 0 3 0 0 0 0 0 0 0 0 0 0 0 0 0 0 0 0 0 0
13 13 16 13 6 0 6 6 10 6 3 6 0 0 0 0 0 0 0 0 0 0 0 0 0 0 0 0 0 0 0 0 0 0 0 0 0 0
16 13 13 6 0 0 0 6 6 6 3 3 3 0 0 0 0 0 0 0 0 0 0 0 0 0 0 0 0 0 0 0 0 0 0 0 0 0
10 10 13 6 0 0 0 3 3 0 0 3 3 3 3 3 0 0 0 0 0 0 0 0 0 0 0 0 0 0 0 0 0 0 0 0 0 0
10 10 10 3 0 0 0 0 0 0 0 3 6 6 3 3 3 0 0 0 0 0 0 0 0 0 0 0 0 0 0 0 0 0 0 0 0 0
3 6 3 0 0 0 0 0 0 0 3 3 3 3 6 6 6 3 0 0 0 0 0 0 0 0 0 0 0 0 0 0 0 0 0 0 0 0
3 3 3 0 0 0 0 0 0 0 0 3 3 3 3 3 3 3 3 3 3 3 3 0 0 0 0 0 0 0 0 0 0 0 0 0 0 0
3 6 6 6 6 3 0 0 0 0 0 0 0 3 3 3 3 3 3 3 3 3 3 0 0 0 0 0 0 0 0 0 0 0 0 0 0 0
3 6 6 6 6 3 3 3 3 3 0 0 0 0 3 3 3 3 3 3 3 3 0 0 0 0 0 0 0 0 0 0 0 0 0 0 0 0
3 6 6 6 6 3 3 3 3 3 0 3 3 3 3 3 3 3 3 0 0 0 0 0 0 0 0 0 0 0 0 0 0 0 0 0 0 0
3 6 6 6 3 3 3 3 0 0 0 0 0 3 3 3 3 3 3 0 0 0 0 0 0 0 0 0 0 0 0 0 0 0 0 0 0 0
3 3 3 0 0 0 0 0 0 0 0 0 0 0 3 3 3 3 0 0 0 0 0 0 0 0 0 0 0 0 0 0 0 0 0 0 0 0
3 3 3 0 0 0 0 0 0 0 0 0 0 0 0 3 3 3 0 0 0 0 0 0 0 3 0 0 0 0 0 0 0 0 0 0 0 0

GEFSNE_con_cape1000_228.txt.gz
Probability
32 29 23 23 19 19 10 10 23 19 16 13 6 6 3 3 3 3 3 0 0 0 0 0 0 0 0 0 0 6 10 10 3 3 0 0 0 6
29 23 26 23 19 23 19 10 10 16 19 13 13 6 10 6 6 3 3 0 0 0 0 0 0 0 0 0 0 0 0 0 0 0 0 0 0 0
23 29 32 29 26 26 23 16 13 10 16 16 10 10 10 10 6 6 3 3 6 0 0 0 0 0 0 0 0 0 0 0 0 0 0 0 0 0
32 26 26 19 26 23 23 19 16 16 16 16 13 10 13 6 6 10 3 3 13 3 0 0 0 0 0 0 0 0 0 0 0 0 0 0 0 0
29 29 26 19 19 19 16 16 19 16 16 16 16 13 10 6 6 6 6 13 6 3 0 0 0 0 0 0 0 0 0 0 0 0 0 0 0 0
32 29 26 23 23 23 16 16 13 13 13 13 13 6 10 10 3 10 13 6 6 6 3 0 0 0 0 0 0 0 0 0 0 0 0 0 0 0
26 26 23 19 16 16 16 16 10 10 6 6 10 6 6 0 3 6 6 3 3 3 0 0 0 3 3 0 0 0 0 0 0 0 0 0 0 0
23 26 19 16 16 6 3 0 0 3 3 6 6 10 6 3 3 0 3 3 3 0 0 0 0 0 0 0 0 0 0 0 0 0 0 0 0 0
13 19 16 16 10 16 3 0 0 0 0 3 3 3 3 6 3 0 0 3 3 3 0 0 0 0 0 0 0 0 0 0 0 0 0 0 0 0
3 3 13 10 6 10 13 6 3 0 0 0 3 3 0 0 3 0 0 0 3 3 0 3 0 0 0 0 0 0 0 0 0 0 0 0 0 0
3 6 6 6 3 3 6 10 6 10 0 0 0 0 0 0 0 0 0 0 0 0 0 0 0 0 0 0 0 0 0 0 0 0 0 0 0 0
6 0 0 0 3 3 3 13 13 13 6 0 0 0 0 0 0 0 0 0 0 0 0 0 3 3 3 3 0 0 0 0 0 0 0 0 0 0
3 6 6 0 0 0 3 10 13 13 10 3 0 0 0 0 0 0 0 0 0 0 0 0 3 3 3 3 3 3 0 0 0 0 0 0 0 0
10 10 6 0 0 0 0 3 3 0 6 3 3 0 0 0 0 0 0 0 0 3 0 0 3 3 0 0 3 3 3 0 0 0 0 0 0 0
10 6 3 0 0 0 0 3 0 3 6 3 6 3 3 0 0 3 3 0 0 0 0 0 0 0 0 0 3 3 3 0 0 0 0 0 0 0
0 0 0 0 0 0 0 0 3 3 6 10 10 6 6 3 0 0 0 0 0 0 0 0 0 0 0 0 0 3 3 0 0 0 0 0 0 0
0 0 0 0 0 0 0 3 3 3 3 6 6 6 3 3 0 0 0 0 0 0 0 0 0 0 0 0 0 3 0 0 0 0 0 0 0 0
0 0 0 3 3 3 3 3 3 3 3 3 3 0 3 3 3 3 3 0 0 0 0 3 0 0 0 0 0 0 0 0 0 0 0 0 0 0
0 0 0 3 3 3 3 6 6 3 0 0 0 0 0 0 3 3 3 3 3 3 3 3 3 3 0 0 0 0 0 0 0 0 0 0 0 0
0 0 0 3 3 3 3 6 6 6 3 0 0 0 0 0 0 0 0 0 0 3 3 3 3 3 3 0 0 0 0 0 0 0 0 0 0 0
0 0 0 3 3 3 3 6 6 6 6 3 3 0 0 0 0 0 0 0 0 0 0 3 3 0 0 0 0 0 0 0 0 0 0 0 0 0
0 0 0 0 0 3 6 6 6 6 6 3 3 0 0 0 0 3 3 0 0 0 0 3 0 0 0 0 0 0 0 0 0 0 0 0 0 0
0 0 0 0 0 0 3 3 6 6 6 0 0 0 0 0 0 3 3 3 0 0 0 3 0 0 0 0 0 0 0 0 0 0 0 0 0 0

GEFSNE_con_cape1000_234.txt.gz
Probability
61 65 61 61 58 58 58 52 45 32 42 42 32 29 42 52 23 42 52 16 3 0 0 0 0 0 0 0 0 3 3 6 6 6 6 10 13 16
71 68 65 55 52 58 61 65 58 52 39 32 39 32 42 23 13 45 48 16 6 0 0 0 0 0 0 0 0 0 0 0 0 0 0 3 3 6
65 58 61 58 55 55 52 58 61 52 48 39 32 39 39 48 42 45 42 39 23 3 0 0 0 0 0 0 0 0 0 0 0 0 0 0 0 0
61 58 58 58 61 58 65 55 58 68 58 48 42 32 55 45 45 45 26 16 23 6 3 0 0 0 0 0 0 0 0 0 0 0 0 0 0 0
61 61 58 61 65 61 68 58 52 42 58 52 42 48 39 39 35 29 19 32 6 6 3 3 0 0 0 0 0 0 0 0 0 0 0 0 0 0
65 61 55 55 65 65 58 61 55 48 52 48 39 39 39 32 32 16 13 19 23 6 6 3 3 0 0 0 0 0 0 0 0 0 0 0 0 0
58 65 61 45 45 48 48 48 52 45 42 42 39 35 29 39 29 23 16 19 26 16 13 13 13 16 6 0 0 0 0 0 0 0 0 0 0 0
52 58 48 42 35 6 6 6 23 48 45 45 42 42 52 35 39 32 23 23 19 19 19 13 10 10 16 16 3 0 0 0 0 0 0 0 0 0
52 42 32 32 32 52 13 3 3 6 6 48 32 32 35 42 39 32 42 39 35 16 23 19 16 19 19 3 0 0 0 0 0 0 0 0 0 0
32 35 35 35 32 45 35 29 32 32 13 23 35 35 39 39 32 35 45 45 45 39 26 19 26 23 10 13 0 0 0 0 0 0 0 0 0 0
23 26 29 35 13 6 16 23 26 26 3 3 6 6 10 3 13 19 26 29 23 23 23 19 16 23 23 10 0 0 0 0 0 0 0 0 0 0
23 16 16 16 13 0 19 19 16 29 26 13 3 0 0 0 0 10 29 26 26 23 26 23 19 19 16 13 13 6 0 0 0 0 0 0 0 0
23 19 16 3 0 0 3 19 16 13 16 23 29 23 29 23 23 23 26 26 23 23 23 26 19 19 16 10 10 16 6 3 3 0 0 0 0 0
19 16 16 3 0 0 0 3 0 0 13 16 16 13 19 16 16 29 29 32 35 32 26 23 16 19 10 10 10 10 6 6 6 6 0 0 0 0
16 13 6 0 0 0 0 0 0 3 13 10 13 13 16 23 26 26 26 26 26 26 16 19 19 13 16 13 13 10 6 3 3 3 0 0 0 0
3 3 0 0 0 0 0 0 0 6 10 10 10 16 13 23 26 19 19 23 19 23 23 19 23 19 16 16 13 10 10 6 3 0 0 0 0 0
6 6 10 13 6 6 10 6 6 3 3 6 10 13 10 10 19 23 19 19 19 19 19 19 19 19 19 13 10 6 6 6 3 3 3 0 0 0
0 6 6 13 10 10 13 6 3 3 6 10 13 13 10 10 13 23 16 23 23 19 19 16 16 13 10 10 3 6 6 10 6 6 3 0 0 0
0 3 3 10 10 3 3 3 3 3 6 6 10 10 10 6 10 16 10 6 6 13 13 19 16 13 6 6 3 0 3 10 10 6 3 0 0 0
0 0 0 6 6 3 3 3 3 3 3 10 10 6 3 3 3 6 6 6 6 6 6 13 10 10 6 6 3 3 0 3 13 10 3 3 3 0
0 0 6 3 0 0 3 0 0 3 3 3 6 10 3 3 3 3 3 3 3 6 6 6 6 3 10 6 6 3 3 0 3 10 10 3 3 3
0 0 3 3 0 0 3 0 0 0 3 3 3 3 3 3 3 6 3 3 6 6 6 6 10 10 6 3 3 3 3 3 0 0 0 0 0 0
0 3 3 3 0 0 0 0 0 0 0 3 3 3 3 3 6 3 3 3 3 6 6 6 10 6 3 3 3 3 0 3 3 0 0 0 0 0

GEFSNE_con_cape1000_240.txt.gz
Probability
77 77 81 65 68 65 65 55 52 45 39 48 58 55 48 42 23 35 45 16 3 3 0 0 0 0 3 3 3 6 6 6 6 10 10 10 10 13
84 77 77 71 71 71 68 65 61 55 48 55 58 52 45 32 19 39 32 19 3 3 0 0 0 0 0 0 0 0 0 3 3 6 6 3 6 6
74 68 71 71 68 68 74 65 61 68 61 55 58 52 52 52 35 48 39 32 19 3 0 0 0 0 0 0 0 0 0 0 0 0 0 0 0 0
65 65 68 58 71 74 74 71 71 68 65 55 55 55 52 55 42 45 39 32 23 6 0 0 0 0 0 0 0 0 0 0 0 0 0 0 0 0
61 61 61 65 61 68 65 61 65 65 71 52 45 55 55 55 45 42 32 39 13 3 0 0 0 0 0 0 0 0 0 0 0 0 0 0 0 0
61 61 55 55 58 61 58 58 58 61 55 58 45 39 42 45 35 42 29 26 16 3 0 0 0 0 0 0 0 0 0 0 0 0 0 0 0 0
55 52 52 45 35 35 39 42 48 45 48 42 42 35 42 39 35 32 19 23 26 23 6 6 0 0 0 0 0 0 0 0 0 0 0 0 0 0
48 52 52 35 29 19 19 16 16 35 45 42 32 26 35 35 35 23 16 13 16 19 19 10 16 10 3 0 0 0 0 0 0 0 0 0 0 0
45 45 42 39 29 29 26 6 3 3 6 23 29 26 35 35 32 29 26 16 16 16 10 6 6 13 19 6 0 0 0 0 0 0 0 0 0 0
39 39 42 32 26 26 26 29 32 32 13 6 13 19 23 32 26 26 23 26 29 29 19 10 13 6 13 6 3 0 0 0 0 0 0 0 0 0
32 23 23 29 16 13 13 16 29 26 3 0 6 3 3 3 10 10 16 16 13 19 19 16 13 10 13 10 6 0 0 0 0 0 0 0 0 0
29 23 16 16 16 10 13 16 16 23 23 13 3 0 0 0 0 3 10 13 10 13 19 13 10 6 3 10 6 6 0 0 0 0 0 0 0 0
19 19 16 10 0 0 6 16 16 10 13 13 13 13 13 10 10 10 10 10 13 10 16 16 13 10 6 3 6 6 6 0 0 0 0 0 0 0
23 16 13 3 0 0 0 3 3 0 6 10 13 13 13 13 13 10 13 19 23 16 16 13 13 10 3 6 10 3 3 0 0 3 0 0 0 0
13 10 6 0 0 0 0 0 0 0 6 6 6 13 13 13 13 13 23 23 26 23 19 26 23 19 10 10 10 10 0 0 0 0 0 0 0 0
0 3 0 0 0 0 0 0 0 3 6 3 10 13 13 13 13 13 13 16 19 16 16 23 19 19 13 13 6 3 3 3 0 0 0 0 0 0
3 6 10 3 6 6 6 3 3 3 3 3 3 10 10 10 13 13 13 13 10 16 16 16 19 23 23 16 13 10 6 3 3 3 0 0 0 0
0 3 3 3 6 6 10 10 6 6 6 6 6 13 10 10 10 10 10 10 10 10 10 13 10 10 10 6 3 3 0 0 0 0 0 0 0 0
0 3 0 3 3 6 10 10 10 10 10 10 10 10 6 6 6 6 6 6 6 10 10 10 13 6 6 3 3 0 0 0 0 3 3 0 0 0
0 0 0 0 10 10 6 6 10 10 10 10 10 10 10 10 3 3 3 3 3 3 3 6 6 6 6 3 3 0 0 0 0 0 3 0 0 0
0 0 0 0 3 6 6 6 6 0 6 10 13 10 10 10 3 0 0 0 3 3 3 3 6 3 3 6 6 3 0 0 0 3 3 0 0 0
0 3 0 3 3 3 10 10 10 3 0 0 10 6 6 6 0 0 0 0 0 0 0 3 3 3 3 3 6 0 0 0 0 0 0 0 0 0
0 3 3 3 3 3 3 6 6 0 3 3 6 0 3 3 0 0 0 0 0 0 3 3 3 3 3 3 3 0 0 0 0 0 0 0 0 0

GEFSNE_con_cape1000_246.txt.gz
Probability
23 16 16 23 16 19 16 10 10 6 6 10 3 3 6 3 10 6 6 13 6 3 0 0 0 0 3 6 6 6 10 13 13 13 13 13 10 13
39 39 29 29 23 16 19 13 10 10 10 6 3 6 6 10 10 6 10 6 3 3 0 0 0 0 0 0 0 0 0 0 0 0 10 10 10 10
42 42 39 32 26 19 19 16 6 10 6 6 6 6 10 6 3 6 6 3 3 3 0 0 0 0 0 0 0 0 0 0 0 0 0 0 3 6
45 39 32 32 26 23 16 13 10 10 10 10 10 10 10 3 3 3 6 6 3 0 0 0 0 0 0 0 0 0 0 0 0 0 0 0 0 0
39 35 32 32 23 23 19 16 13 13 10 10 6 6 3 3 3 3 6 3 0 0 0 0 0 0 0 0 0 0 0 0 0 0 0 0 0 0
32 29 26 29 29 26 26 23 13 10 10 6 3 3 3 3 3 3 3 0 0 0 0 0 0 0 0 0 0 0 0 0 0 0 0 0 0 0
19 23 26 26 29 26 29 16 16 10 6 10 10 3 3 3 3 3 3 0 0 0 0 0 0 0 0 0 0 0 0 0 0 0 0 0 0 0
26 29 23 23 26 19 19 16 16 16 13 13 13 10 3 3 3 0 0 0 0 0 0 0 0 0 0 0 0 0 0 0 0 0 0 0 0 0
29 19 29 26 13 13 10 6 6 10 10 13 13 13 3 3 3 0 0 0 0 0 0 0 0 0 0 0 0 0 0 0 0 0 0 0 0 0
23 19 16 10 10 10 10 10 6 3 3 3 6 3 3 3 0 0 0 0 0 0 0 0 0 0 0 0 0 0 0 0 0 0 0 0 0 0
19 13 13 10 6 10 10 10 10 3 0 3 3 3 3 0 0 0 0 0 0 0 0 0 0 0 0 0 0 0 0 0 0 0 0 0 0 0
6 10 13 13 6 6 6 6 6 3 3 3 0 0 0 0 0 0 0 0 0 0 0 0 0 0 0 0 0 0 0 0 0 0 0 0 0 0
6 6 10 3 3 3 0 3 3 0 0 0 0 0 0 0 0 0 0 0 0 0 0 0 0 0 0 0 0 0 0 0 0 0 0 0 0 0
6 3 3 3 0 0 0 3 0 0 0 0 0 0 0 0 0 0 0 0 0 0 0 3 3 3 3 0 0 0 0 0 0 0 0 0 0 0
3 3 3 3 0 0 0 0 0 0 0 0 0 0 0 0 0 0 0 0 0 0 0 0 3 3 3 3 0 0 0 0 0 0 0 0 0 0
3 3 0 0 0 0 0 0 0 0 0 0 0 0 0 0 0 0 3 3 3 3 3 3 3 3 3 3 0 0 0 0 0 0 0 0 0 0
0 0 0 0 0 0 0 0 0 0 0 0 0 0 0 0 0 0 0 3 3 3 0 0 3 3 3 3 0 0 0 0 0 0 0 0 0 0
0 0 0 0 0 0 0 0 0 0 0 0 0 0 0 0 0 0 0 0 0 0 0 0 3 3 3 3 3 0 0 0 0 0 0 0 0 0
0 0 0 0 0 0 0 0 0 0 0 0 0 0 0 0 0 0 0 0 0 0 0 0 3 3 3 3 3 0 0 0 0 0 0 0 0 0
0 3 0 0 0 0 0 0 0 0 0 0 0 0 0 0 0 0 0 0 0 0 0 0 3 3 3 3 0 0 0 0 0 0 0 0 0 0
0 0 3 0 0 0 0 0 0 0 0 0 0 0 0 0 0 0 0 0 0 0 0 0 0 3 3 0 0 0 0 0 0 0 0 0 0 0
0 0 3 3 0 0 0 0 0 0 0 0 0 0 0 0 0 0 0 0 0 0 0 0 0 0 0 0 0 0 0 0 0 0 0 0 0 0
0 0 0 3 0 0 0 0 0 0 0 0 0 0 0 0 0 0 0 0 0 0 0 0 0 0 0 0 0 0 0 0 0 0 0 0 0 0

GEFSNE_con_cape1000_252.txt.gz
Probability
32 23 13 13 10 10 13 13 16 16 13 10 10 10 13 13 3 10 13 3 0 3 0 0 0 0 0 0 0 3 0 0 0 6 6 13 16 16
32 29 26 26 19 19 10 10 10 10 16 13 6 6 16 3 3 6 13 0 0 0 0 0 0 0 0 0 0 0 0 0 0 0 0 0 0 3
32 32 32 35 29 19 16 13 10 6 19 19 10 10 16 10 6 3 6 6 6 0 0 0 0 0 0 0 0 0 0 0 0 0 0 0 0 0
35 35 35 29 23 23 23 26 19 16 23 23 16 16 6 6 6 6 3 3 6 0 0 0 0 0 0 0 0 0 0 0 0 0 0 0 0 0
35 35 35 32 23 19 23 19 13 13 16 19 13 10 6 3 6 3 3 6 0 0 0 0 0 0 0 0 0 0 0 0 0 0 0 0 0 0
32 29 26 19 19 23 23 19 16 16 16 10 13 6 3 3 3 6 3 3 0 0 0 0 0 0 0 0 0 0 0 0 0 0 0 0 0 0
29 26 26 19 16 16 16 23 16 13 13 13 10 10 6 6 6 6 3 0 0 0 0 0 0 0 0 0 0 0 0 0 0 0 0 0 0 0
29 26 23 19 13 10 10 6 6 10 13 10 6 10 13 10 6 3 3 0 3 0 0 0 0 0 0 0 0 0 0 0 0 0 0 0 0 0
26 19 23 19 10 16 6 0 0 0 0 10 10 10 10 10 10 6 3 6 3 0 0 0 0 0 0 0 0 0 0 0 0 0 0 0 0 0
23 19 16 23 10 6 6 6 6 3 3 0 6 10 10 10 6 6 6 0 0 0 0 3 0 0 0 3 0 0 0 0 0 0 0 0 0 0
19 16 19 19 6 3 6 10 10 10 3 0 0 3 0 0 0 3 0 0 0 0 0 3 0 3 3 3 0 0 0 0 0 0 0 0 0 0
16 13 6 10 3 3 3 6 10 6 6 0 0 0 0 0 0 0 0 0 0 0 0 3 0 0 3 0 0 3 0 0 0 0 0 0 0 0
16 10 6 0 0 0 0 3 3 3 3 3 0 0 0 0 0 0 0 0 0 0 0 0 3 3 0 0 0 0 0 0 0 0 0 0 0 0
10 10 6 0 0 0 0 0 0 0 3 0 0 0 0 0 0 0 0 0 0 0 0 0 3 3 3 3 0 0 0 0 0 0 0 0 0 0
6 3 0 0 0 0 0 0 0 0 3 3 3 0 0 0 0 0 0 0 0 0 0 0 0 3 3 3 3 0 0 0 0 0 0 0 0 0
3 0 0 0 0 0 0 0 0 0 3 3 3 0 0 0 0 0 0 0 0 3 0 0 0 0 3 3 3 0 3 0 0 0 0 0 0 0
3 0 0 0 0 0 0 0 0 0 3 3 3 0 0 0 0 0 0 0 3 3 3 3 3 3 0 3 3 3 0 0 3 3 3 0 0 0
0 0 0 0 0 0 0 0 3 3 3 3 3 3 0 0 0 0 0 0 0 0 0 3 3 3 3 3 3 3 0 0 0 0 0 0 0 0
0 0 0 0 0 0 0 0 0 3 3 3 3 3 0 0 0 0 0 0 0 0 0 0 3 3 3 3 3 0 3 0 0 0 0 0 0 0
0 0 0 0 0 0 0 0 0 0 3 3 3 3 3 0 0 0 0 0 0 0 0 0 0 3 3 3 3 3 0 0 0 0 0 0 0 0
0 0 0 0 0 0 0 0 0 0 0 0 0 3 0 0 0 0 0 0 0 0 0 0 0 0 3 3 3 0 0 0 0 0 0 0 0 0
0 0 0 0 0 0 0 0 0 0 0 0 0 0 0 0 0 0 0 0 0 0 0 0 0 0 0 3 3 3 0 0 0 0 0 0 0 0
0 0 0 0 0 0 0 0 0 0 0 0 0 0 0 0 0 0 0 0 0 0 0 0 0 0 0 0 0 0 0 0 0 0 0 0 0 0

GEFSNE_con_cape1000_258.txt.gz
Probability
52 68 68 58 55 55 55 61 61 52 52 45 32 39 52 55 19 35 48 13 6 3 0 0 3 3 0 0 0 0 0 0 0 0 3 10 16 19
71 65 65 52 61 58 61 55 61 52 48 48 55 45 52 35 16 39 42 10 3 3 0 0 0 0 0 0 0 0 0 0 0 0 0 0 0 6
65 61 65 68 58 55 52 48 55 55 55 48 48 45 55 48 42 35 32 39 29 6 0 0 0 0 0 0 0 0 0 0 0 0 0 0 0 0
58 58 58 45 61 52 45 52 52 55 48 55 42 35 45 45 39 39 23 16 23 0 0 0 0 0 0 0 0 0 0 0 0 0 0 0 0 0
58 55 55 52 55 55 45 35 35 35 48 39 35 42 32 26 26 23 19 29 16 3 0 0 0 0 0 0 0 0 0 0 0 0 0 0 0 0
58 55 55 52 55 52 45 45 42 45 45 39 32 26 35 23 19 19 19 19 16 6 3 0 0 0 0 0 0 0 0 0 0 0 0 0 0 0
52 52 48 45 42 42 35 42 42 39 35 39 26 23 29 26 16 13 13 16 19 10 16 13 6 6 3 0 0 0 0 0 0 0 0 0 0 0
39 45 45 42 23 16 16 16 19 35 32 32 35 26 32 26 23 16 16 13 16 13 16 16 13 16 10 10 0 0 0 0 0 0 0 0 0 0
42 45 39 32 32 35 10 3 6 6 10 32 26 29 26 16 19 16 19 13 23 13 16 16 16 16 10 6 0 0 0 0 0 0 0 0 0 0
35 39 42 35 29 29 29 26 29 23 13 16 19 23 23 23 19 19 19 19 19 16 19 19 19 19 3 10 3 0 0 0 0 0 0 0 0 0
32 35 39 32 26 19 26 29 29 23 16 3 10 10 3 3 6 19 19 19 13 16 19 19 16 16 13 13 6 0 0 0 0 0 0 0 0 0
32 29 19 19 19 3 23 26 26 23 23 16 6 0 3 3 0 6 13 16 13 13 10 16 19 16 10 10 6 10 0 0 0 0 0 0 0 0
23 26 19 10 3 3 10 23 23 19 19 19 23 19 16 16 16 10 13 13 13 13 13 16 16 16 10 10 6 6 6 6 0 0 0 0 0 0
23 23 19 3 0 0 3 6 3 3 16 16 13 13 13 13 13 13 16 13 16 16 19 19 16 19 16 13 10 6 3 10 6 6 6 0 0 0
26 16 3 0 0 0 0 0 0 10 6 10 10 10 10 13 13 13 13 13 13 16 13 16 16 16 16 16 13 6 3 3 6 6 6 6 3 3
6 3 0 0 0 0 0 0 3 6 6 6 6 10 10 10 10 10 10 10 10 13 13 16 16 16 16 13 10 10 10 3 6 6 6 3 6 6
6 3 3 3 10 13 10 6 6 0 0 3 6 6 6 10 10 6 6 10 10 10 13 13 13 16 16 16 10 10 10 6 3 0 0 0 0 0
3 6 6 10 10 6 6 10 6 6 6 3 3 10 10 10 10 10 6 6 10 13 13 10 10 10 10 6 3 3 3 3 0 0 0 0 0 0
6 13 10 10 3 3 0 3 0 0 0 3 3 3 10 10 10 6 6 6 3 6 6 3 3 3 3 3 3 3 3 3 0 0 0 0 0 0
6 10 10 3 3 3 0 0 0 0 0 0 3 3 3 6 6 3 3 6 6 3 3 3 0 3 3 0 0 3 3 3 3 3 3 3 3 0
6 6 6 3 3 3 3 0 0 0 0 0 0 0 0 3 3 3 3 0 0 6 0 0 3 0 0 6 0 0 3 3 3 3 3 3 3 0
3 6 6 3 3 3 3 0 0 0 0 0 0 0 0 0 0 0 0 0 0 0 0 0 3 3 3 0 0 0 3 3 0 0 0 0 3 3
3 6 3 3 3 3 3 3 0 0 0 0 0 0 0 0 0 0 0 0 0 0 0 3 0 3 3 3 0 0 0 3 3 0 3 0 0 0

GEFSNE_con_cape1000_264.txt.gz
Probability
68 77 77 71 65 68 71 61 58 55 55 55 61 61 68 58 10 23 39 13 10 3 3 3 0 0 0 0 0 0 0 0 0 0 3 10 13 13
77 71 74 68 65 68 61 61 58 58 55 58 65 61 61 42 13 35 35 13 10 6 3 3 0 0 0 0 0 0 0 0 0 0 0 0 0 0
68 61 68 68 61 58 65 55 65 68 55 55 52 55 48 55 32 42 32 19 10 3 3 0 0 0 0 0 0 0 0 0 0 0 0 0 0 0
65 58 65 61 71 61 61 61 61 55 58 55 55 55 52 52 45 42 26 19 16 3 0 0 0 0 0 0 0 0 0 0 0 0 0 0 0 0
61 65 58 55 58 58 61 61 52 45 55 52 52 55 42 42 35 35 26 29 19 10 0 0 0 0 0 0 0 0 0 0 0 0 0 0 0 0
61 61 58 55 55 58 45 48 52 52 55 52 48 42 42 39 35 26 26 19 16 10 6 6 0 0 0 0 0 0 0 0 0 0 0 0 0 0
61 58 48 45 39 39 32 48 48 52 45 39 35 39 39 32 32 23 19 16 19 13 13 6 6 6 0 0 0 0 0 0 0 0 0 0 0 0
55 58 39 39 29 16 16 13 19 35 42 39 32 29 32 32 29 19 19 16 16 16 13 13 6 6 6 3 0 0 0 0 0 0 0 0 0 0
55 52 32 26 23 26 16 13 10 6 10 23 29 32 35 29 16 19 19 19 19 19 16 16 16 16 13 3 0 0 0 0 0 0 0 0 0 0
55 52 42 39 32 29 29 19 29 19 19 13 19 23 23 19 19 19 19 16 16 19 16 16 13 10 10 10 0 0 0 0 0 0 0 0 0 0
48 45 42 35 26 19 23 26 29 23 13 10 10 10 3 3 6 16 13 13 10 13 16 13 13 10 10 10 3 0 0 0 0 0 0 0 0 0
52 32 19 23 23 16 19 29 29 23 16 16 16 10 3 3 0 6 10 10 13 10 16 13 13 13 10 10 6 0 0 0 0 0 0 0 0 0
32 35 23 16 10 6 13 26 19 13 16 23 19 16 13 16 13 10 10 10 10 10 13 13 13 13 13 10 6 3 0 0 0 0 0 0 0 0
29 26 19 6 3 3 6 6 3 3 10 13 16 16 16 10 10 10 13 13 10 6 10 10 10 10 10 10 6 3 3 3 0 0 0 0 0 0
26 13 6 3 0 3 0 0 0 6 10 13 16 16 13 10 10 10 10 16 16 10 10 10 16 16 10 10 10 3 3 3 3 3 3 0 0 0
6 6 3 0 0 6 0 0 0 10 13 10 6 10 10 13 10 13 6 13 10 13 13 10 10 19 10 6 6 6 3 3 3 3 3 3 3 0
3 3 6 6 3 6 3 3 6 6 6 6 6 3 6 6 3 3 6 10 10 10 10 10 10 6 10 6 6 6 3 0 0 0 0 0 0 3
3 6 10 10 10 6 6 6 3 6 6 6 3 3 0 0 0 3 6 6 3 3 3 0 0 3 6 6 3 6 3 3 3 0 0 0 0 0
3 10 10 10 10 10 10 10 3 6 6 3 3 0 0 0 0 0 0 0 3 0 0 0 0 0 0 0 0 3 3 3 3 0 0 0 0 0
13 16 13 10 10 10 10 10 10 6 3 3 3 0 0 0 0 0 0 0 0 0 0 0 0 0 0 0 0 0 0 3 3 3 3 0 0 3
6 10 16 10 6 6 6 6 6 3 3 3 0 0 0 0 0 0 0 0 0 0 0 0 0 0 0 0 0 0 0 0 0 3 3 3 3 3
6 6 10 6 6 3 3 6 6 3 3 3 0 0 0 0 0 0 0 0 0 0 0 0 0 0 0 0 0 0 0 0 0 0 0 0 0 3
6 10 10 10 6 6 3 6 6 3 3 0 0 0 0 0 0 0 0 0 0 0 0 0 0 0 0 0 0 0 0 0 0 0 0 0 0 0

GEFSNE_con_cape1000_270.txt.gz
Probability
32 29 26 26 23 13 6 3 3 3 3 3 6 6 3 3 3 0 3 0 0 3 3 3 0 0 0 0 0 0 3 3 3 3 0 0 0 6
35 32 32 35 29 26 16 6 3 3 6 3 3 6 3 10 3 0 0 0 0 0 3 3 3 0 0 0 0 0 0 0 0 0 0 0 0 0
39 35 35 29 26 26 19 16 13 13 10 13 6 6 6 6 6 3 3 0 3 0 0 0 0 0 0 0 0 0 0 0 0 0 0 0 0 0
39 35 35 29 29 26 16 16 16 16 16 16 13 13 6 6 6 6 3 6 3 3 0 0 0 0 0 0 0 0 0 0 0 0 0 0 0 0
39 35 32 29 29 26 16 16 16 16 16 16 16 10 13 10 3 3 3 6 6 6 3 0 0 0 0 0 0 0 0 0 0 0 0 0 0 0
39 32 32 29 29 26 16 16 16 16 16 16 13 10 13 6 6 6 6 3 3 6 6 3 0 0 0 0 0 0 0 0 0 0 0 0 0 0
39 35 29 29 26 26 23 16 16 16 16 16 16 10 6 10 10 6 6 6 3 3 3 0 0 0 0 0 0 0 0 0 0 0 0 0 0 0
39 35 35 32 23 16 16 10 10 13 16 16 16 10 6 6 6 6 3 0 3 0 0 0 0 0 0 0 0 0 0 0 0 0 0 0 0 0
39 39 32 32 19 16 16 13 10 10 10 10 13 10 10 3 3 0 0 0 0 0 0 0 0 0 0 0 0 0 0 0 0 0 0 0 0 0
29 35 35 16 16 13 10 6 6 6 3 3 3 3 3 3 0 0 0 0 0 0 0 0 0 0 3 0 0 0 0 0 0 0 0 0 0 0
29 29 29 19 13 13 10 10 6 3 3 3 3 3 3 0 0 0 0 0 0 0 0 0 3 3 3 0 0 0 0 0 0 0 0 0 0 0
19 26 19 19 13 10 13 10 6 3 3 3 3 3 0 0 0 0 0 0 0 0 0 0 0 0 0 0 0 0 0 0 0 0 0 0 0 0
19 16 13 6 3 3 3 10 10 3 3 3 3 0 0 0 0 0 0 0 0 0 0 0 0 0 0 0 0 0 0 0 0 0 0 0 0 0
13 13 10 6 6 3 0 6 3 3 3 3 3 0 0 0 0 0 0 0 0 0 0 0 0 0 0 0 0 0 0 0 0 0 0 0 0 0
6 10 10 6 6 0 0 3 3 3 3 3 3 3 3 0 0 0 0 0 0 0 0 0 0 0 0 0 0 0 0 0 0 0 0 0 0 0
3 3 3 0 0 0 0 0 3 3 3 3 3 3 0 0 0 0 0 0 0 0 0 0 0 0 0 0 0 0 0 0 0 0 0 0 0 0
0 0 0 3 0 0 0 0 0 0 0 0 0 0 0 0 0 0 0 0 0 0 0 0 0 0 0 0 0 0 0 0 0 0 0 0 0 0
0 3 3 3 6 6 6 3 3 3 0 0 0 0 0 0 0 0 0 0 0 0 0 0 0 0 0 0 0 0 0 0 0 0 0 0 0 0
3 3 3 3 3 6 6 6 6 3 0 0 0 0 0 0 0 0 0 0 0 0 0 0 0 0 0 0 0 0 0 0 0 0 0 0 0 0
3 3 3 3 3 3 6 6 6 3 0 0 0 0 0 0 0 0 0 0 0 0 0 0 0 0 0 0 0 0 0 0 0 0 0 0 0 0
3 3 3 3 3 3 3 6 6 3 0 0 0 0 0 0 0 0 0 0 0 0 0 0 0 0 0 0 0 0 0 0 0 0 0 0 0 0
3 3 3 3 3 3 3 6 6 3 0 0 0 0 0 0 0 0 0 0 0 0 0 0 0 0 0 0 0 0 0 0 0 0 0 0 0 0
3 3 3 6 3 3 3 6 6 3 3 0 0 0 0 0 0 0 0 0 0 0 0 0 0 0 0 0 0 0 0 0 0 0 0 0 0 0

GEFSNE_con_cape1000_276.txt.gz
Probability
26 23 19 19 16 10 13 13 19 16 13 10 16 16 13 10 6 10 10 3 0 0 0 0 0 0 0 0 0 0 0 0 0 3 3 3 6 10
26 26 26 19 19 19 26 13 10 23 19 13 16 13 13 10 10 16 10 0 0 0 0 0 0 0 0 0 0 0 0 0 0 0 0 3 0 0
29 26 29 29 26 26 26 19 16 13 19 16 13 13 13 13 13 10 6 6 6 0 0 0 0 0 0 0 0 0 0 0 0 0 0 0 0 0
45 39 35 32 29 29 23 23 19 19 19 23 16 16 13 13 6 10 10 6 10 6 3 0 0 0 0 0 0 0 0 0 0 0 0 0 0 0
39 39 35 35 35 29 23 23 19 16 16 16 19 16 16 13 6 6 6 10 10 10 0 0 0 0 0 0 0 0 0 0 0 0 0 0 0 0
35 32 32 29 29 29 26 23 23 16 13 16 16 13 13 16 13 6 10 10 6 3 3 3 0 0 0 0 0 0 0 0 0 0 0 0 0 0
35 35 32 32 29 29 29 23 19 13 13 13 16 10 10 10 10 13 6 3 3 0 3 3 3 3 0 0 0 0 0 0 0 0 0 0 0 0
29 32 32 32 29 16 10 13 13 13 13 13 13 13 13 10 13 10 6 6 6 3 3 3 3 3 0 0 0 0 0 0 0 0 0 0 0 0
23 26 26 29 29 32 19 10 3 3 10 13 13 13 13 6 13 10 6 3 10 3 3 3 3 3 3 0 0 0 0 0 0 0 0 0 0 0
23 23 26 26 26 29 29 16 16 6 6 3 13 13 6 6 10 10 6 6 0 0 3 6 3 3 0 0 0 0 0 0 0 0 0 0 0 0
16 16 23 23 16 6 23 23 13 10 3 0 3 3 3 0 0 3 3 0 0 3 3 3 3 6 3 3 0 0 0 0 0 0 0 0 0 0
16 13 6 6 10 0 10 16 16 13 10 3 0 3 0 0 0 0 0 0 0 3 0 3 3 3 0 3 3 3 0 0 0 0 0 0 0 0
16 13 13 0 0 0 0 10 13 10 6 3 3 3 0 0 0 0 0 0 0 3 3 3 3 3 3 0 3 3 3 3 0 0 0 0 0 0
13 13 10 3 0 0 0 0 0 3 6 3 3 3 0 0 0 0 0 0 0 0 3 0 3 0 0 0 0 3 3 3 3 3 3 0 0 0
6 3 0 0 0 0 0 0 0 3 3 3 3 3 3 0 0 0 0 0 0 0 0 0 0 0 0 0 0 3 0 0 3 0 6 3 0 0
0 0 0 0 0 0 0 0 0 0 3 3 3 3 3 0 0 0 0 0 0 0 0 0 0 0 0 0 0 0 0 3 0 0 0 0 0 0
0 0 0 0 3 3 3 0 0 0 3 3 3 3 3 0 0 0 0 0 0 0 0 0 0 0 0 0 0 0 0 0 0 0 0 0 0 0
0 0 0 3 3 3 3 3 3 3 3 3 3 3 3 0 0 0 0 0 0 0 0 0 0 0 0 0 0 0 0 0 0 0 0 0 0 0
0 0 0 0 3 6 6 3 3 3 3 3 3 3 3 0 0 0 0 0 0 0 0 0 0 0 0 0 0 0 0 0 0 0 0 0 0 0
0 0 0 3 3 6 6 3 3 3 3 6 3 3 0 0 0 0 0 0 0 0 0 0 0 0 0 0 0 0 0 0 0 0 0 0 0 0
0 0 0 0 3 3 6 3 3 3 3 3 0 0 0 0 0 0 0 0 0 0 0 0 0 0 0 0 0 0 0 0 0 0 0 0 0 0
0 0 0 0 0 0 3 3 3 3 3 3 0 0 0 0 0 0 0 0 0 0 0 0 0 0 0 0 0 0 0 0 0 0 0 0 0 0
0 0 0 0 0 0 0 0 0 3 3 3 0 0 0 0 0 0 0 0 0 0 0 0 0 0 0 0 0 0 0 0 0 0 0 0 0 0

GEFSNE_con_cape1000_282.txt.gz
Probability
58 55 58 52 55 55 52 55 45 45 45 48 45 48 52 52 19 32 52 16 3 3 0 0 0 0 0 0 0 3 0 0 0 0 0 0 3 6
65 61 58 52 58 61 58 55 52 52 45 39 52 35 48 23 13 39 45 16 3 3 0 0 0 0 0 0 0 0 0 0 0 0 0 0 0 0
61 61 61 65 65 61 61 58 52 48 42 45 45 42 52 39 39 35 39 35 26 3 3 0 0 0 0 0 0 0 0 0 0 0 0 0 0 0
48 55 55 58 61 61 65 61 58 58 55 55 42 39 48 45 42 42 29 19 19 0 0 0 0 0 0 0 0 0 0 0 0 0 0 0 0 0
45 52 52 55 58 58 65 61 61 52 58 48 42 55 42 39 45 29 19 29 16 3 0 0 0 0 0 0 0 0 0 0 0 0 0 0 0 0
52 52 48 52 52 55 61 61 65 65 58 55 45 48 52 32 35 32 29 29 19 6 3 0 0 0 0 0 0 0 0 0 0 0 0 0 0 0
35 42 35 35 32 39 39 48 55 58 58 58 55 45 32 35 32 35 26 19 19 10 10 6 6 3 3 0 0 0 0 0 0 0 0 0 0 0
45 42 39 42 29 19 16 19 29 45 48 52 45 52 48 39 39 32 26 23 13 10 10 10 6 10 10 6 0 0 0 0 0 0 0 0 0 0
48 48 39 23 29 39 29 3 6 6 26 45 42 48 45 45 39 32 39 35 39 16 19 13 10 6 10 0 0 0 0 0 0 0 0 0 0 0
48 48 48 42 29 32 32 26 32 35 32 35 42 42 39 45 39 32 32 35 29 29 16 16 10 3 3 3 0 0 0 0 0 0 0 0 0 0
45 39 42 42 23 16 26 32 32 32 23 13 23 29 19 16 16 23 29 19 13 10 6 16 10 10 10 0 0 0 0 0 0 0 0 0 0 0
39 45 13 13 10 0 29 32 32 32 32 26 13 10 13 16 3 16 19 16 19 10 6 16 10 6 6 3 3 0 0 0 0 0 0 0 0 0
19 23 16 3 0 0 0 29 26 23 29 29 23 23 26 26 19 19 16 16 13 6 6 13 6 6 13 6 3 3 6 6 0 0 0 0 0 0
19 16 13 6 0 0 0 10 10 0 19 19 23 23 23 23 23 19 26 19 23 16 23 16 10 13 13 6 3 3 3 6 6 3 0 0 0 0
10 3 3 3 0 0 0 0 0 13 23 19 19 19 19 19 23 23 19 23 23 13 6 13 10 13 13 13 10 3 3 3 3 3 3 6 3 3
3 3 0 0 0 0 0 0 3 16 16 16 19 19 19 19 19 13 13 13 13 10 6 10 10 10 13 3 6 3 3 3 6 3 3 6 3 0
0 3 0 0 0 3 10 10 10 13 10 16 19 16 16 16 16 10 13 10 10 10 10 6 6 6 6 6 3 3 0 0 6 6 6 6 3 3
0 3 0 3 3 6 10 10 13 16 6 13 19 13 19 10 13 6 10 10 10 6 10 6 3 3 6 3 3 3 0 0 0 0 3 6 6 3
0 3 0 0 10 6 6 6 13 16 10 3 6 10 10 13 16 6 6 6 6 10 6 0 3 0 0 3 3 0 0 0 0 0 0 0 0 0
0 0 0 0 10 10 6 10 10 3 3 3 3 3 6 10 10 6 3 3 3 6 3 0 0 0 0 0 0 0 0 0 0 0 0 0 0 0
3 0 0 6 6 10 13 13 13 10 3 3 3 3 3 10 10 10 6 3 3 6 3 0 0 0 0 0 3 0 0 0 0 3 0 0 0 0
0 0 3 6 10 16 13 13 6 6 3 3 3 3 6 3 3 10 6 3 3 3 3 3 6 0 0 0 0 0 0 0 0 0 0 0 0 0
0 0 0 3 3 6 10 10 6 6 3 3 3 3 3 3 3 3 6 6 3 3 0 0 0 0 0 0 0 0 0 0 0 0 0 0 0 0

GEFSNE_con_cape1000_288.txt.gz
Probability
68 61 61 65 61 58 55 58 52 42 45 55 48 48 52 45 19 26 39 16 6 3 3 0 0 0 0 0 0 0 0 0 3 3 3 3 6 3
65 65 58 61 61 55 58 55 55 45 45 39 45 42 42 26 13 29 45 16 3 3 0 0 0 0 0 0 0 0 0 0 0 0 0 0 0 0
61 61 65 68 61 65 55 58 48 52 42 45 42 39 42 45 29 42 35 26 13 0 0 0 0 0 0 0 0 0 0 0 0 0 0 0 0 0
61 58 58 61 61 61 58 55 52 48 48 45 42 42 45 45 45 45 32 23 23 0 0 0 0 0 0 0 0 0 0 0 0 0 0 0 0 0
61 58 58 58 55 45 48 48 52 42 48 42 48 42 45 42 45 42 29 26 13 0 0 0 0 0 0 0 0 0 0 0 0 0 0 0 0 0
52 55 55 52 52 48 42 52 45 45 45 42 42 39 45 35 32 39 29 23 16 0 0 0 0 0 0 0 0 0 0 0 0 0 0 0 0 0
52 45 52 52 42 32 32 35 42 45 45 45 45 35 32 29 32 32 23 16 23 6 10 3 3 3 3 0 0 0 0 0 0 0 0 0 0 0
45 52 48 45 35 13 10 13 19 29 39 42 45 32 29 32 32 26 26 16 19 16 6 3 3 3 3 0 0 0 0 0 0 0 0 0 0 0
52 52 26 26 26 45 23 3 6 3 6 23 48 42 32 35 32 32 26 16 13 10 10 6 10 6 0 0 0 0 0 0 0 0 0 0 0 0
48 48 48 48 23 32 35 29 39 32 23 16 29 35 29 35 32 32 26 26 19 16 13 13 10 10 3 0 0 0 0 0 0 0 0 0 0 0
29 26 32 32 23 16 23 32 35 35 16 10 13 16 16 16 23 29 19 13 13 16 13 16 16 6 3 0 0 0 0 0 0 0 0 0 0 0
29 23 16 19 16 3 23 29 29 23 16 16 10 13 16 19 3 13 26 16 10 10 13 13 6 6 6 3 0 0 0 0 0 0 0 0 0 0
23 23 16 10 0 0 3 16 19 16 13 19 16 26 26 26 26 23 23 16 6 6 6 10 10 6 6 3 3 0 0 0 0 0 0 0 0 0
16 16 16 3 0 0 0 6 0 0 6 16 10 16 26 26 26 23 16 16 10 6 10 6 6 6 6 3 3 3 0 0 0 0 0 0 0 0
6 3 0 0 0 0 0 0 0 0 3 6 10 13 13 23 23 16 19 23 23 10 3 3 6 6 6 3 3 3 3 0 0 0 0 0 0 0
0 0 0 0 0 0 0 0 0 0 3 6 6 6 10 6 16 13 16 19 16 10 3 3 6 6 6 3 3 3 3 3 3 0 0 0 0 0
3 6 3 3 3 6 3 0 0 0 0 3 3 6 10 6 10 13 13 16 13 6 3 3 3 6 6 0 3 3 3 3 3 3 3 0 0 0
0 0 3 3 3 3 3 0 0 0 3 3 3 6 6 3 6 10 10 13 13 13 6 3 0 0 0 0 0 3 3 3 3 3 3 3 3 3
0 0 0 0 3 0 0 3 3 0 6 6 10 13 10 6 6 10 10 10 6 10 10 3 0 0 0 0 0 0 0 0 0 3 3 3 3 3
0 0 0 0 0 0 0 0 0 3 3 3 3 10 10 3 3 10 10 10 6 6 6 0 0 0 0 0 0 0 0 0 0 0 0 3 3 3
0 0 0 0 0 3 3 10 10 10 10 10 10 6 10 6 6 6 3 6 3 6 6 6 0 0 0 0 0 0 0 0 0 0 0 0 0 0
0 0 0 0 0 3 3 6 6 10 10 10 10 6 10 0 0 6 6 3 3 3 6 6 6 0 0 0 0 0 0 0 0 0 0 0 0 0
0 0 0 0 3 3 3 3 6 6 6 6 6 0 3 0 0 3 3 3 0 0 3 3 6 3 0 0 0 0 0 0 0 0 0 0 0 0